Time,TemperatureF,DewpointF,PressureIn,WindDirection,WindDirectionDegrees,WindSpeedMPH,WindSpeedGustMPH,Humidity,HourlyPrecipIn,Conditions,Clouds,dailyrainin,SolarRadiationWatts/m^2,SoftwareType,DateUTC
2013-06-04 00:01:00,50.2,44.3,30.10,ESE,117,0.0,1.1,80,0.00,CLR,,0.00,0.0,WeatherDisplay:10.37,2013-06-04 04:01:00,
2013-06-04 00:02:00,50.2,44.3,30.10,ESE,117,0.4,1.0,80,0.00,CLR,,0.00,0.0,WeatherDisplay:10.37,2013-06-04 04:02:00,
2013-06-04 00:07:00,50.1,44.5,30.11,ESE,117,0.2,0.0,81,0.00,CLR,,0.00,0.0,WeatherDisplay:10.37,2013-06-04 04:07:00,
2013-06-04 00:12:00,49.5,44.2,30.11,SSE,161,0.0,0.0,82,0.00,CLR,,0.00,0.0,WeatherDisplay:10.37,2013-06-04 04:12:00,
2013-06-04 00:17:00,49.5,44.2,30.11,SSE,161,1.3,2.3,82,0.00,CLR,,0.00,0.0,WeatherDisplay:10.37,2013-06-04 04:17:00,
2013-06-04 00:22:00,49.7,44.4,30.11,SSE,161,1.2,2.3,82,0.00,CLR,,0.00,0.0,WeatherDisplay:10.37,2013-06-04 04:22:00,
2013-06-04 00:27:00,49.7,44.1,30.11,SSE,161,1.5,2.3,81,0.00,CLR,,0.00,0.0,WeatherDisplay:10.37,2013-06-04 04:27:00,
2013-06-04 00:32:00,49.8,44.2,30.11,SSE,161,0.1,1.1,81,0.00,CLR,,0.00,0.0,WeatherDisplay:10.37,2013-06-04 04:32:00,
2013-06-04 00:37:00,49.3,44.0,30.11,South,175,1.3,3.5,82,0.00,CLR,,0.00,0.0,WeatherDisplay:10.37,2013-06-04 04:37:00,
2013-06-04 00:42:00,49.0,43.7,30.11,South,176,1.7,2.3,82,0.00,CLR,,0.00,0.0,WeatherDisplay:10.37,2013-06-04 04:42:00,
2013-06-04 00:47:00,49.2,43.6,30.11,SSE,158,1.6,2.3,81,0.00,CLR,,0.00,0.0,WeatherDisplay:10.37,2013-06-04 04:47:00,
2013-06-04 00:52:00,49.5,43.9,30.11,South,170,2.1,4.6,81,0.00,CLR,,0.00,0.0,WeatherDisplay:10.37,2013-06-04 04:52:00,
2013-06-04 00:57:00,49.6,43.7,30.11,South,171,1.0,2.3,80,0.00,CLR,,0.00,0.0,WeatherDisplay:10.37,2013-06-04 04:57:00,
2013-06-04 01:02:00,49.6,43.7,30.11,South,171,0.0,0.0,80,0.00,CLR,,0.00,0.0,WeatherDisplay:10.37,2013-06-04 05:02:00,
2013-06-04 01:07:00,49.3,43.7,30.11,South,171,0.4,1.1,81,0.00,CLR,,0.00,0.0,WeatherDisplay:10.37,2013-06-04 05:07:00,
2013-06-04 01:12:00,49.2,43.6,30.11,South,171,0.6,1.1,81,0.00,CLR,,0.00,0.0,WeatherDisplay:10.37,2013-06-04 05:12:00,
2013-06-04 01:17:00,49.1,43.8,30.10,South,171,0.2,1.1,82,0.00,CLR,,0.00,0.0,WeatherDisplay:10.37,2013-06-04 05:17:00,
2013-06-04 01:22:00,48.8,43.9,30.10,South,171,0.5,1.1,83,0.00,CLR,,0.00,0.0,WeatherDisplay:10.37,2013-06-04 05:22:00,
2013-06-04 01:27:00,48.7,43.5,30.11,South,171,0.0,0.0,82,0.00,CLR,,0.00,0.0,WeatherDisplay:10.37,2013-06-04 05:27:00,
2013-06-04 01:32:00,48.4,43.8,30.10,South,171,0.1,1.1,84,0.00,CLR,,0.00,0.0,WeatherDisplay:10.37,2013-06-04 05:32:00,
2013-06-04 01:37:00,48.5,43.6,30.11,SSE,168,0.8,1.1,83,0.00,CLR,,0.00,0.0,WeatherDisplay:10.37,2013-06-04 05:37:00,
2013-06-04 01:42:00,48.5,43.6,30.11,SSE,167,1.3,2.3,83,0.00,CLR,,0.00,0.0,WeatherDisplay:10.37,2013-06-04 05:42:00,
2013-06-04 01:47:00,48.5,43.6,30.11,SSE,167,0.3,1.1,83,0.00,CLR,,0.00,0.0,WeatherDisplay:10.37,2013-06-04 05:47:00,
2013-06-04 01:52:00,48.5,43.6,30.11,SSE,155,1.7,3.5,83,0.00,CLR,,0.00,0.0,WeatherDisplay:10.37,2013-06-04 05:52:00,
2013-06-04 01:57:00,48.6,43.7,30.10,SSE,155,1.1,2.3,83,0.00,CLR,,0.00,0.0,WeatherDisplay:10.37,2013-06-04 05:57:00,
2013-06-04 02:02:00,48.5,43.3,30.10,SSE,155,1.2,2.3,82,0.00,CLR,,0.00,0.0,WeatherDisplay:10.37,2013-06-04 06:02:00,
2013-06-04 02:07:00,48.5,43.3,30.10,SSE,157,0.1,1.1,82,0.00,CLR,,0.00,0.0,WeatherDisplay:10.37,2013-06-04 06:07:00,
2013-06-04 02:12:00,48.4,43.2,30.10,SSE,157,0.6,2.3,82,0.00,CLR,,0.00,0.0,WeatherDisplay:10.37,2013-06-04 06:12:00,
2013-06-04 02:17:00,48.4,43.2,30.10,SSE,155,0.0,1.1,82,0.00,CLR,,0.00,0.0,WeatherDisplay:10.37,2013-06-04 06:17:00,
2013-06-04 02:22:00,48.3,43.1,30.10,SSE,155,0.8,2.3,82,0.00,CLR,,0.00,0.0,WeatherDisplay:10.37,2013-06-04 06:22:00,
2013-06-04 02:27:00,48.3,43.1,30.10,SSE,154,0.1,1.1,82,0.00,CLR,,0.00,0.0,WeatherDisplay:10.37,2013-06-04 06:27:00,
2013-06-04 02:32:00,48.2,43.0,30.10,SSE,154,0.0,0.0,82,0.00,CLR,,0.00,0.0,WeatherDisplay:10.37,2013-06-04 06:32:00,
2013-06-04 02:37:00,47.8,43.2,30.11,SSE,154,0.0,0.0,84,0.00,CLR,,0.00,0.0,WeatherDisplay:10.37,2013-06-04 06:37:00,
2013-06-04 02:42:00,47.6,43.0,30.11,SSE,154,0.0,0.0,84,0.00,CLR,,0.00,0.0,WeatherDisplay:10.37,2013-06-04 06:42:00,
2013-06-04 02:47:00,47.5,42.9,30.10,SSE,154,0.0,0.0,84,0.00,CLR,,0.00,0.0,WeatherDisplay:10.37,2013-06-04 06:47:00,
2013-06-04 02:52:00,47.7,43.1,30.10,SSE,154,0.6,2.3,84,0.00,CLR,,0.00,0.0,WeatherDisplay:10.37,2013-06-04 06:52:00,
2013-06-04 02:57:00,47.8,42.9,30.10,SSE,154,0.3,1.1,83,0.00,CLR,,0.00,0.0,WeatherDisplay:10.37,2013-06-04 06:57:00,
2013-06-04 03:02:00,47.7,42.8,30.10,SSE,154,0.2,1.1,83,0.00,CLR,,0.00,0.0,WeatherDisplay:10.37,2013-06-04 07:02:00,
2013-06-04 03:07:00,47.2,42.6,30.10,SSE,154,0.0,0.0,84,0.00,CLR,,0.00,0.0,WeatherDisplay:10.37,2013-06-04 07:07:00,
2013-06-04 03:12:00,47.0,42.7,30.10,SSE,154,0.8,1.1,85,0.00,CLR,,0.00,0.0,WeatherDisplay:10.37,2013-06-04 07:12:00,
2013-06-04 03:17:00,47.2,42.9,30.10,SSE,154,0.6,1.1,85,0.00,CLR,,0.00,0.0,WeatherDisplay:10.37,2013-06-04 07:17:00,
2013-06-04 03:22:00,47.4,42.8,30.10,SSE,154,0.8,1.1,84,0.00,CLR,,0.00,0.0,WeatherDisplay:10.37,2013-06-04 07:22:00,
2013-06-04 03:27:00,47.5,42.9,30.10,SSE,154,0.6,1.1,84,0.00,CLR,,0.00,0.0,WeatherDisplay:10.37,2013-06-04 07:27:00,
2013-06-04 03:32:00,47.6,42.7,30.10,SSE,154,0.3,2.3,83,0.00,CLR,,0.00,0.0,WeatherDisplay:10.37,2013-06-04 07:32:00,
2013-06-04 03:37:00,47.6,42.7,30.10,SSE,154,0.2,1.1,83,0.00,CLR,,0.00,0.0,WeatherDisplay:10.37,2013-06-04 07:37:00,
2013-06-04 03:42:00,47.4,42.5,30.10,SSE,154,0.5,1.1,83,0.00,CLR,,0.00,0.0,WeatherDisplay:10.37,2013-06-04 07:42:00,
2013-06-04 03:47:00,47.2,42.6,30.10,SSE,154,0.7,2.3,84,0.00,CLR,,0.00,0.0,WeatherDisplay:10.37,2013-06-04 07:47:00,
2013-06-04 03:52:00,46.9,42.3,30.10,SSE,159,1.3,2.3,84,0.00,CLR,,0.00,0.0,WeatherDisplay:10.37,2013-06-04 07:52:00,
2013-06-04 03:57:00,46.9,42.3,30.11,SSE,159,0.0,1.1,84,0.00,CLR,,0.00,0.0,WeatherDisplay:10.37,2013-06-04 07:57:00,
2013-06-04 04:02:00,47.0,42.4,30.11,SSE,159,0.0,0.0,84,0.00,CLR,,0.00,0.0,WeatherDisplay:10.37,2013-06-04 08:02:00,
2013-06-04 04:07:00,47.1,42.5,30.11,SSE,159,0.1,1.1,84,0.00,CLR,,0.00,0.0,WeatherDisplay:10.37,2013-06-04 08:07:00,
2013-06-04 04:12:00,47.0,42.4,30.11,SSE,159,0.3,1.1,84,0.00,CLR,,0.00,0.0,WeatherDisplay:10.37,2013-06-04 08:12:00,
2013-06-04 04:17:00,46.9,42.3,30.11,SSE,158,1.4,3.5,84,0.00,CLR,,0.00,0.0,WeatherDisplay:10.37,2013-06-04 08:17:00,
2013-06-04 04:22:00,47.1,42.2,30.11,SSE,157,1.4,3.5,83,0.00,CLR,,0.00,0.0,WeatherDisplay:10.37,2013-06-04 08:22:00,
2013-06-04 04:27:00,47.4,42.2,30.11,SSE,158,1.2,2.3,82,0.00,CLR,,0.00,0.0,WeatherDisplay:10.37,2013-06-04 08:27:00,
2013-06-04 04:32:00,47.5,42.3,30.11,SSE,153,1.6,2.3,82,0.00,CLR,,0.00,0.0,WeatherDisplay:10.37,2013-06-04 08:32:00,
2013-06-04 04:37:00,47.5,42.3,30.11,SSE,159,0.6,2.3,82,0.00,CLR,,0.00,0.0,WeatherDisplay:10.37,2013-06-04 08:37:00,
2013-06-04 04:42:00,47.5,42.3,30.11,SSE,158,1.4,3.5,82,0.00,CLR,,0.00,0.0,WeatherDisplay:10.37,2013-06-04 08:42:00,
2013-06-04 04:47:00,47.6,42.4,30.11,SSE,167,1.0,3.5,82,0.00,CLR,,0.00,0.0,WeatherDisplay:10.37,2013-06-04 08:47:00,
2013-06-04 04:52:00,47.5,42.3,30.11,South,174,0.7,2.3,82,0.00,CLR,,0.00,0.0,WeatherDisplay:10.37,2013-06-04 08:52:00,
2013-06-04 04:57:00,47.4,42.2,30.11,SSE,167,1.0,2.0,82,0.00,CLR,,0.00,0.0,WeatherDisplay:10.37,2013-06-04 08:57:00,
2013-06-04 05:02:00,47.1,42.2,30.11,SSE,161,1.4,3.5,83,0.00,CLR,,0.00,0.0,WeatherDisplay:10.37,2013-06-04 09:02:00,
2013-06-04 05:07:00,46.9,42.0,30.11,SSE,161,0.7,1.1,83,0.00,CLR,,0.00,0.0,WeatherDisplay:10.37,2013-06-04 09:07:00,
2013-06-04 05:12:00,46.9,42.0,30.12,SSE,161,0.9,2.3,83,0.00,CLR,,0.00,0.0,WeatherDisplay:10.37,2013-06-04 09:12:00,
2013-06-04 05:17:00,46.6,41.7,30.12,SSE,161,0.0,0.0,83,0.00,CLR,,0.00,0.0,WeatherDisplay:10.37,2013-06-04 09:17:00,
2013-06-04 05:22:00,46.5,41.9,30.12,SSE,161,0.8,2.3,84,0.00,CLR,,0.00,0.0,WeatherDisplay:10.37,2013-06-04 09:22:00,
2013-06-04 05:27:00,46.3,41.7,30.12,SSE,161,0.1,2.3,84,0.00,CLR,,0.00,0.0,WeatherDisplay:10.37,2013-06-04 09:27:00,
2013-06-04 05:32:00,46.5,41.9,30.12,SSE,156,1.1,3.5,84,0.00,CLR,,0.00,0.0,WeatherDisplay:10.37,2013-06-04 09:32:00,
2013-06-04 05:37:00,46.5,41.9,30.12,SSE,165,2.1,3.5,84,0.00,CLR,,0.00,0.0,WeatherDisplay:10.37,2013-06-04 09:37:00,
2013-06-04 05:42:00,46.3,41.7,30.12,South,176,2.4,3.5,84,0.00,CLR,,0.00,0.0,WeatherDisplay:10.37,2013-06-04 09:42:00,
2013-06-04 05:47:00,46.1,41.5,30.13,SSE,167,0.9,3.5,84,0.00,CLR,,0.00,0.0,WeatherDisplay:10.37,2013-06-04 09:47:00,
2013-06-04 05:52:00,46.1,41.5,30.13,SSE,167,0.1,1.0,84,0.00,CLR,,0.00,0.0,WeatherDisplay:10.37,2013-06-04 09:52:00,
2013-06-04 05:57:00,46.1,41.8,30.13,SSE,167,0.0,1.1,85,0.00,CLR,,0.00,0.0,WeatherDisplay:10.37,2013-06-04 09:57:00,
2013-06-04 06:02:00,46.1,41.8,30.13,SSE,167,0.0,0.0,85,0.00,CLR,,0.00,5.0,WeatherDisplay:10.37,2013-06-04 10:02:00,
2013-06-04 06:07:00,46.0,41.7,30.13,SSE,167,0.0,0.0,85,0.00,BKN,,0.00,7.0,WeatherDisplay:10.37,2013-06-04 10:07:00,
2013-06-04 06:12:00,46.0,41.7,30.14,SSE,167,0.1,1.1,85,0.00,BKN,,0.00,7.0,WeatherDisplay:10.37,2013-06-04 10:12:00,
2013-06-04 06:17:00,46.3,42.0,30.14,SSE,167,0.0,0.0,85,0.00,BKN,,0.00,9.0,WeatherDisplay:10.37,2013-06-04 10:17:00,
2013-06-04 06:22:00,46.3,41.7,30.14,SSE,167,0.0,0.0,84,0.00,BKN,,0.00,11.0,WeatherDisplay:10.37,2013-06-04 10:22:00,
2013-06-04 06:27:00,46.3,42.0,30.14,SSE,167,0.0,0.0,85,0.00,BKN,,0.00,12.0,WeatherDisplay:10.37,2013-06-04 10:27:00,
2013-06-04 06:32:00,46.2,42.2,30.14,SSE,167,0.0,0.0,86,0.00,BKN,,0.00,19.0,WeatherDisplay:10.37,2013-06-04 10:32:00,
2013-06-04 06:37:00,46.5,42.5,30.14,SSE,167,0.0,0.0,86,0.00,BKN,,0.00,32.0,WeatherDisplay:10.37,2013-06-04 10:37:00,
2013-06-04 06:42:00,46.9,42.6,30.15,SSE,167,0.0,0.0,85,0.00,BKN,,0.00,35.0,WeatherDisplay:10.37,2013-06-04 10:42:00,
2013-06-04 06:47:00,47.2,42.9,30.15,SSE,167,0.0,0.0,85,0.00,BKN,,0.00,39.0,WeatherDisplay:10.37,2013-06-04 10:47:00,
2013-06-04 06:52:00,47.6,43.0,30.15,SSE,167,0.0,1.1,84,0.00,BKN,,0.00,42.0,WeatherDisplay:10.37,2013-06-04 10:52:00,
2013-06-04 06:57:00,48.0,43.1,30.15,SSE,167,0.1,1.1,83,0.00,BKN,,0.00,44.0,WeatherDisplay:10.37,2013-06-04 10:57:00,
2013-06-04 07:02:00,48.5,43.6,30.15,SSE,167,0.0,0.0,83,0.00,BKN,,0.00,46.0,WeatherDisplay:10.37,2013-06-04 11:02:00,
2013-06-04 07:07:00,49.0,43.7,30.15,SSE,167,0.0,0.0,82,0.00,BKN,,0.00,47.0,WeatherDisplay:10.37,2013-06-04 11:07:00,
2013-06-04 07:12:00,49.5,43.9,30.15,SSE,167,0.3,1.1,81,0.00,BKN,,0.00,49.0,WeatherDisplay:10.37,2013-06-04 11:12:00,
2013-06-04 07:17:00,50.0,44.1,30.15,SSE,167,0.5,2.3,80,0.00,BKN,,0.00,51.0,WeatherDisplay:10.37,2013-06-04 11:17:00,
2013-06-04 07:22:00,50.5,44.2,30.15,SSE,167,0.8,3.5,79,0.00,BKN,,0.00,53.0,WeatherDisplay:10.37,2013-06-04 11:22:00,
2013-06-04 07:27:00,51.0,44.0,30.16,South,169,0.2,3.0,77,0.00,CLR,,0.00,199.0,WeatherDisplay:10.37,2013-06-04 11:27:00,
2013-06-04 07:32:00,51.5,44.5,30.16,South,173,0.9,2.3,77,0.00,CLR,,0.00,211.0,WeatherDisplay:10.37,2013-06-04 11:32:00,
2013-06-04 07:37:00,52.0,44.0,30.16,South,184,1.2,3.0,74,0.00,CLR,,0.00,227.0,WeatherDisplay:10.37,2013-06-04 11:37:00,
2013-06-04 07:42:00,52.6,44.2,30.16,South,191,0.3,1.1,73,0.00,CLR,,0.00,244.0,WeatherDisplay:10.37,2013-06-04 11:42:00,
2013-06-04 07:47:00,53.2,44.8,30.16,SSW,203,0.2,1.1,73,0.00,CLR,,0.00,258.0,WeatherDisplay:10.37,2013-06-04 11:47:00,
2013-06-04 07:52:00,53.7,44.1,30.16,SSW,203,0.0,1.1,70,0.00,CLR,,0.00,274.0,WeatherDisplay:10.37,2013-06-04 11:52:00,
2013-06-04 07:57:00,54.2,43.9,30.16,WSW,239,2.5,3.5,68,0.00,CLR,,0.00,290.0,WeatherDisplay:10.37,2013-06-04 11:57:00,
2013-06-04 08:02:00,54.8,44.4,30.16,WSW,247,2.2,3.5,68,0.00,FEW,,0.00,236.0,WeatherDisplay:10.37,2013-06-04 12:02:00,
2013-06-04 08:07:00,55.3,45.3,30.16,West,277,0.8,2.3,69,0.00,CLR,,0.00,323.0,WeatherDisplay:10.37,2013-06-04 12:07:00,
2013-06-04 08:12:00,55.6,45.2,30.16,WSW,256,1.2,2.3,68,0.00,CLR,,0.00,339.0,WeatherDisplay:10.37,2013-06-04 12:12:00,
2013-06-04 08:17:00,56.0,45.6,30.17,West,264,1.5,4.0,68,0.00,CLR,,0.00,355.0,WeatherDisplay:10.37,2013-06-04 12:17:00,
2013-06-04 08:22:00,56.3,45.5,30.17,West,267,2.6,4.0,67,0.00,CLR,,0.00,371.0,WeatherDisplay:10.37,2013-06-04 12:22:00,
2013-06-04 08:27:00,56.4,45.6,30.17,WSW,242,2.5,3.5,67,0.00,CLR,,0.00,388.0,WeatherDisplay:10.37,2013-06-04 12:27:00,
2013-06-04 08:32:00,56.9,45.7,30.17,WSW,256,2.5,4.6,66,0.00,CLR,,0.00,403.0,WeatherDisplay:10.37,2013-06-04 12:32:00,
2013-06-04 08:37:00,57.7,46.4,30.18,SW,236,2.5,5.0,66,0.00,CLR,,0.00,418.0,WeatherDisplay:10.37,2013-06-04 12:37:00,
2013-06-04 08:42:00,58.4,46.3,30.18,NW,318,4.1,4.6,64,0.00,CLR,,0.00,434.0,WeatherDisplay:10.37,2013-06-04 12:42:00,
2013-06-04 08:47:00,58.6,45.6,30.18,WNW,290,2.2,5.0,62,0.00,CLR,,0.00,450.0,WeatherDisplay:10.37,2013-06-04 12:47:00,
2013-06-04 08:52:00,59.0,46.0,30.18,WNW,300,3.6,5.8,62,0.00,CLR,,0.00,468.0,WeatherDisplay:10.37,2013-06-04 12:52:00,
2013-06-04 08:57:00,59.7,46.7,30.18,West,277,2.3,5.0,62,0.00,CLR,,0.00,483.0,WeatherDisplay:10.37,2013-06-04 12:57:00,
2013-06-04 09:02:00,59.8,45.9,30.18,NW,311,3.5,4.6,60,0.00,CLR,,0.00,499.0,WeatherDisplay:10.37,2013-06-04 13:02:00,
2013-06-04 09:07:00,59.8,46.3,30.18,WNW,292,1.4,4.0,61,0.00,CLR,,0.00,512.0,WeatherDisplay:10.37,2013-06-04 13:07:00,
2013-06-04 09:12:00,60.0,46.5,30.18,WNW,296,3.9,6.9,61,0.00,CLR,,0.00,527.0,WeatherDisplay:10.37,2013-06-04 13:12:00,
2013-06-04 09:17:00,60.5,47.0,30.18,NNE,14,5.1,9.2,61,0.00,CLR,,0.00,545.0,WeatherDisplay:10.37,2013-06-04 13:17:00,
2013-06-04 09:22:00,60.8,48.1,30.18,NNW,331,5.0,8.1,63,0.00,CLR,,0.00,557.0,WeatherDisplay:10.37,2013-06-04 13:22:00,
2013-06-04 09:27:00,61.4,49.5,30.19,NW,311,5.7,9.2,65,0.00,CLR,,0.00,573.0,WeatherDisplay:10.37,2013-06-04 13:27:00,
2013-06-04 09:32:00,61.9,49.2,30.19,NW,304,4.4,9.2,63,0.00,CLR,,0.00,592.0,WeatherDisplay:10.37,2013-06-04 13:32:00,
2013-06-04 09:37:00,62.2,49.9,30.19,NW,323,4.0,4.6,64,0.00,CLR,,0.00,606.0,WeatherDisplay:10.37,2013-06-04 13:37:00,
2013-06-04 09:42:00,62.2,49.0,30.19,WNW,294,2.2,4.6,62,0.00,CLR,,0.00,608.0,WeatherDisplay:10.37,2013-06-04 13:42:00,
2013-06-04 09:47:00,61.9,50.4,30.19,NNW,342,5.0,6.0,66,0.00,CLR,,0.00,631.0,WeatherDisplay:10.37,2013-06-04 13:47:00,
2013-06-04 09:52:00,62.0,50.1,30.19,WNW,288,3.5,6.0,65,0.00,CLR,,0.00,647.0,WeatherDisplay:10.37,2013-06-04 13:52:00,
2013-06-04 09:57:00,62.7,50.8,30.19,NW,308,2.5,5.0,65,0.00,CLR,,0.00,666.0,WeatherDisplay:10.37,2013-06-04 13:57:00,
2013-06-04 10:02:00,63.4,51.8,30.19,NW,325,3.8,6.0,66,0.00,CLR,,0.00,677.0,WeatherDisplay:10.37,2013-06-04 14:02:00,
2013-06-04 10:07:00,63.6,50.3,30.18,WNW,294,3.9,4.6,62,0.00,CLR,,0.00,696.0,WeatherDisplay:10.37,2013-06-04 14:07:00,
2013-06-04 10:12:00,63.6,52.0,30.18,NNE,23,4.9,6.9,66,0.00,CLR,,0.00,686.0,WeatherDisplay:10.37,2013-06-04 14:12:00,
2013-06-04 10:17:00,63.6,52.4,30.18,NNE,13,4.6,7.0,67,0.00,CLR,,0.00,694.0,WeatherDisplay:10.37,2013-06-04 14:17:00,
2013-06-04 10:22:00,63.4,53.0,30.18,North,360,3.6,6.0,69,0.00,CLR,,0.00,731.0,WeatherDisplay:10.37,2013-06-04 14:22:00,
2013-06-04 10:27:00,63.8,52.6,30.18,NNW,339,2.9,5.8,67,0.00,CLR,,0.00,738.0,WeatherDisplay:10.37,2013-06-04 14:27:00,
2013-06-04 10:32:00,63.7,54.5,30.17,NW,326,3.8,8.0,72,0.00,CLR,,0.00,679.0,WeatherDisplay:10.37,2013-06-04 14:32:00,
2013-06-04 10:37:00,63.8,52.2,30.18,NNE,22,4.6,6.9,66,0.00,CLR,,0.00,768.0,WeatherDisplay:10.37,2013-06-04 14:37:00,
2013-06-04 10:42:00,64.0,52.0,30.18,North,9,4.0,9.0,65,0.00,CLR,,0.00,784.0,WeatherDisplay:10.37,2013-06-04 14:42:00,
2013-06-04 10:47:00,64.1,52.5,30.17,North,5,6.8,8.1,66,0.00,CLR,,0.00,791.0,WeatherDisplay:10.37,2013-06-04 14:47:00,
2013-06-04 10:52:00,64.4,53.2,30.18,NW,325,3.7,5.8,67,0.00,CLR,,0.00,830.0,WeatherDisplay:10.37,2013-06-04 14:52:00,
2013-06-04 10:57:00,63.9,50.6,30.18,NE,45,4.3,5.8,62,0.00,BKN,,0.00,74.0,WeatherDisplay:10.37,2013-06-04 14:57:00,
2013-06-04 11:02:00,64.3,52.3,30.18,NNW,328,5.3,5.8,65,0.00,CLR,,0.00,842.0,WeatherDisplay:10.37,2013-06-04 15:02:00,
2013-06-04 11:07:00,64.9,50.7,30.18,ENE,74,2.7,5.0,60,0.00,CLR,,0.00,846.0,WeatherDisplay:10.37,2013-06-04 15:07:00,
2013-06-04 11:12:00,65.0,52.5,30.18,ESE,109,4.0,4.6,64,0.00,CLR,,0.00,868.0,WeatherDisplay:10.37,2013-06-04 15:12:00,
2013-06-04 11:17:00,65.5,49.9,30.18,NNE,13,4.4,9.2,57,0.00,CLR,,0.00,877.0,WeatherDisplay:10.37,2013-06-04 15:17:00,
2013-06-04 11:22:00,65.4,50.7,30.18,NW,312,6.0,9.0,59,0.00,CLR,,0.00,865.0,WeatherDisplay:10.37,2013-06-04 15:22:00,
2013-06-04 11:27:00,65.7,48.6,30.18,North,5,2.9,4.6,54,0.00,CLR,,0.00,842.0,WeatherDisplay:10.37,2013-06-04 15:27:00,
2013-06-04 11:32:00,65.5,47.9,30.18,North,360,5.0,9.2,53,0.00,FEW,,0.00,809.0,WeatherDisplay:10.37,2013-06-04 15:32:00,
2013-06-04 11:37:00,65.5,49.4,30.18,NE,44,1.9,5.0,56,0.00,FEW,,0.00,814.0,WeatherDisplay:10.37,2013-06-04 15:37:00,
2013-06-04 11:42:00,65.7,48.6,30.18,NNE,13,7.4,11.5,54,0.00,SCT,,0.00,689.0,WeatherDisplay:10.37,2013-06-04 15:42:00,
2013-06-04 11:47:00,66.0,46.8,30.18,North,355,5.5,6.9,50,0.00,FEW,,0.00,749.0,WeatherDisplay:10.37,2013-06-04 15:47:00,
2013-06-04 11:52:00,66.0,46.8,30.18,NNE,13,5.6,8.0,50,0.00,CLR,,0.00,889.0,WeatherDisplay:10.37,2013-06-04 15:52:00,
2013-06-04 11:57:00,66.1,49.5,30.18,NE,41,4.1,9.2,55,0.00,CLR,,0.00,896.0,WeatherDisplay:10.37,2013-06-04 15:57:00,
2013-06-04 12:02:00,66.4,45.5,30.18,ENE,59,3.6,5.0,47,0.00,SCT,,0.00,758.0,WeatherDisplay:10.37,2013-06-04 16:02:00,
2013-06-04 12:07:00,66.3,47.6,30.18,NNW,346,5.5,8.1,51,0.00,FEW,,0.00,904.0,WeatherDisplay:10.37,2013-06-04 16:07:00,
2013-06-04 12:12:00,66.3,46.0,30.18,North,360,4.8,8.1,48,0.00,FEW,,0.00,888.0,WeatherDisplay:10.37,2013-06-04 16:12:00,
2013-06-04 12:17:00,66.1,44.7,30.19,NNW,340,5.1,8.1,46,0.00,FEW,,0.00,940.0,WeatherDisplay:10.37,2013-06-04 16:17:00,
2013-06-04 12:22:00,65.5,43.6,30.19,East,84,3.0,7.0,45,0.00,FEW,,0.00,872.0,WeatherDisplay:10.37,2013-06-04 16:22:00,
2013-06-04 12:27:00,65.9,42.8,30.19,NE,46,5.7,10.4,43,0.00,FEW,,0.00,877.0,WeatherDisplay:10.37,2013-06-04 16:27:00,
2013-06-04 12:32:00,66.2,48.0,30.19,North,5,3.1,9.0,52,0.00,BKN,,0.00,190.0,WeatherDisplay:10.37,2013-06-04 16:32:00,
2013-06-04 12:37:00,66.5,46.2,30.19,WNW,296,5.0,6.0,48,0.00,BKN,,0.00,104.0,WeatherDisplay:10.37,2013-06-04 16:37:00,
2013-06-04 12:42:00,66.3,43.7,30.19,North,11,4.9,8.1,44,0.00,BKN,,0.00,104.0,WeatherDisplay:10.37,2013-06-04 16:42:00,
2013-06-04 12:47:00,66.0,42.9,30.19,NW,310,2.9,6.9,43,0.00,BKN,,0.00,120.0,WeatherDisplay:10.37,2013-06-04 16:47:00,
2013-06-04 12:52:00,66.3,43.7,30.19,ENE,63,6.8,10.4,44,0.00,BKN,,0.00,120.0,WeatherDisplay:10.37,2013-06-04 16:52:00,
2013-06-04 12:57:00,65.9,44.5,30.19,North,355,6.7,9.2,46,0.00,BKN,,0.00,146.0,WeatherDisplay:10.37,2013-06-04 16:57:00,
2013-06-04 13:02:00,65.8,45.6,30.19,NNE,32,5.2,11.5,48,0.00,BKN,,0.00,176.0,WeatherDisplay:10.37,2013-06-04 17:02:00,
2013-06-04 13:08:00,65.4,46.8,30.19,North,360,3.6,5.8,51,0.00,BKN,,0.00,322.0,WeatherDisplay:10.37,2013-06-04 17:08:00,
2013-06-04 13:13:00,66.0,45.7,30.20,NE,40,6.1,8.1,48,0.00,BKN,,0.00,111.0,WeatherDisplay:10.37,2013-06-04 17:13:00,
2013-06-04 13:18:00,65.8,45.6,30.19,NNW,347,4.3,6.9,48,0.00,BKN,,0.00,304.0,WeatherDisplay:10.37,2013-06-04 17:18:00,
2013-06-04 13:23:00,65.7,47.6,30.19,NNE,22,2.4,6.9,52,0.00,BKN,,0.00,132.0,WeatherDisplay:10.37,2013-06-04 17:23:00,
2013-06-04 13:28:00,65.8,45.0,30.19,NNE,14,4.5,9.2,47,0.00,BKN,,0.00,118.0,WeatherDisplay:10.37,2013-06-04 17:28:00,
2013-06-04 13:33:00,65.5,44.2,30.18,NW,324,5.4,6.9,46,0.00,BKN,,0.00,113.0,WeatherDisplay:10.37,2013-06-04 17:33:00,
2013-06-04 13:38:00,65.6,46.5,30.18,NNE,32,4.5,6.9,50,0.00,BKN,,0.00,271.0,WeatherDisplay:10.37,2013-06-04 17:38:00,
2013-06-04 13:43:00,65.7,43.8,30.18,North,360,7.6,11.5,45,0.00,BKN,,0.00,139.0,WeatherDisplay:10.37,2013-06-04 17:43:00,
2013-06-04 13:48:00,65.2,43.3,30.18,NNE,20,8.3,11.0,45,0.00,SCT,,0.00,744.0,WeatherDisplay:10.37,2013-06-04 17:48:00,
2013-06-04 13:53:00,65.1,42.0,30.17,NNW,346,2.8,6.9,43,0.00,BKN,,0.00,265.0,WeatherDisplay:10.37,2013-06-04 17:53:00,
2013-06-04 13:58:00,65.6,44.3,30.17,North,355,4.0,8.1,46,0.00,BKN,,0.00,207.0,WeatherDisplay:10.37,2013-06-04 17:58:00,
2013-06-04 14:03:00,65.5,43.0,30.17,North,5,6.6,6.6,44,0.00,BKN,,0.00,236.0,WeatherDisplay:10.37,2013-06-04 18:03:00,
2013-06-04 14:08:00,65.8,43.3,30.17,North,5,2.8,6.9,44,0.00,FEW,,0.00,907.0,WeatherDisplay:10.37,2013-06-04 18:08:00,
2013-06-04 14:13:00,65.7,45.5,30.17,North,356,6.0,9.0,48,0.00,FEW,,0.00,889.0,WeatherDisplay:10.37,2013-06-04 18:13:00,
2013-06-04 14:18:00,65.8,45.0,30.17,North,4,7.0,10.0,47,0.00,FEW,,0.00,877.0,WeatherDisplay:10.37,2013-06-04 18:18:00,
2013-06-04 14:23:00,65.7,44.4,30.17,NNE,23,3.0,5.0,46,0.00,FEW,,0.00,891.0,WeatherDisplay:10.37,2013-06-04 18:23:00,
2013-06-04 14:28:00,65.5,44.7,30.17,NE,42,4.5,8.1,47,0.00,FEW,,0.00,868.0,WeatherDisplay:10.37,2013-06-04 18:28:00,
2013-06-04 14:33:00,65.6,47.0,30.17,NNE,15,5.0,7.0,51,0.00,FEW,,0.00,856.0,WeatherDisplay:10.37,2013-06-04 18:33:00,
2013-06-04 14:38:00,65.8,45.0,30.17,NNE,13,5.0,5.0,47,0.00,SCT,,0.00,596.0,WeatherDisplay:10.37,2013-06-04 18:38:00,
2013-06-04 14:43:00,65.8,43.9,30.17,NNE,27,5.0,7.0,45,0.00,FEW,,0.00,835.0,WeatherDisplay:10.37,2013-06-04 18:43:00,
2013-06-04 14:48:00,65.6,44.8,30.17,NE,35,5.0,7.0,47,0.00,FEW,,0.00,853.0,WeatherDisplay:10.37,2013-06-04 18:48:00,
2013-06-04 14:53:00,66.2,46.5,30.17,NNE,16,5.0,8.0,49,0.00,FEW,,0.00,844.0,WeatherDisplay:10.37,2013-06-04 18:53:00,
2013-06-04 14:58:00,66.0,45.8,30.18,North,352,5.0,7.0,48,0.00,FEW,,0.00,823.0,WeatherDisplay:10.37,2013-06-04 18:58:00,
2013-06-04 15:03:00,65.7,48.1,30.18,North,353,6.0,8.0,53,0.00,CLR,,0.00,884.0,WeatherDisplay:10.37,2013-06-04 19:03:00,
2013-06-04 15:08:00,65.6,45.9,30.18,North,7,3.0,12.0,49,0.00,FEW,,0.00,849.0,WeatherDisplay:10.37,2013-06-04 19:08:00,
2013-06-04 15:13:00,66.1,45.8,30.18,North,0,5.0,5.0,48,0.00,FEW,,0.00,840.0,WeatherDisplay:10.37,2013-06-04 19:13:00,
2013-06-04 15:18:00,65.9,47.8,30.17,North,355,5.0,7.0,52,0.00,CLR,,0.00,853.0,WeatherDisplay:10.37,2013-06-04 19:18:00,
2013-06-04 15:23:00,65.6,44.3,30.17,NNE,13,2.0,9.0,46,0.00,FEW,,0.00,812.0,WeatherDisplay:10.37,2013-06-04 19:23:00,
2013-06-04 15:28:00,65.6,45.9,30.17,North,11,8.0,12.0,49,0.00,CLR,,0.00,874.0,WeatherDisplay:10.37,2013-06-04 19:28:00,
2013-06-04 15:33:00,65.8,45.5,30.17,North,2,6.0,9.0,48,0.00,CLR,,0.00,835.0,WeatherDisplay:10.37,2013-06-04 19:33:00,
2013-06-04 15:38:00,65.9,45.1,30.18,NNE,21,5.0,5.0,47,0.00,FEW,,0.00,766.0,WeatherDisplay:10.37,2013-06-04 19:38:00,
2013-06-04 15:43:00,65.9,45.6,30.17,NNE,12,5.7,9.2,48,0.00,CLR,,0.00,842.0,WeatherDisplay:10.37,2013-06-04 19:43:00,
2013-06-04 15:48:00,65.7,45.5,30.17,NNW,344,5.6,12.7,48,0.00,CLR,,0.00,851.0,WeatherDisplay:10.37,2013-06-04 19:48:00,
2013-06-04 15:53:00,66.3,45.4,30.17,North,2,6.0,8.0,47,0.00,CLR,,0.00,847.0,WeatherDisplay:10.37,2013-06-04 19:53:00,
2013-06-04 15:58:00,65.8,42.0,30.18,NNE,29,7.0,10.0,42,0.00,CLR,,0.00,800.0,WeatherDisplay:10.37,2013-06-04 19:58:00,
2013-06-04 16:03:00,65.1,42.1,30.18,NNE,24,6.0,10.0,43,0.00,CLR,,0.00,800.0,WeatherDisplay:10.37,2013-06-04 20:03:00,
2013-06-04 16:08:00,65.1,42.6,30.18,NNE,29,5.0,5.0,44,0.00,BKN,,0.00,371.0,WeatherDisplay:10.37,2013-06-04 20:08:00,
2013-06-04 16:13:00,64.9,42.5,30.18,NNE,27,6.0,7.0,44,0.00,BKN,,0.00,404.0,WeatherDisplay:10.37,2013-06-04 20:13:00,
2013-06-04 16:18:00,64.6,43.9,30.18,North,355,2.0,4.0,47,0.00,BKN,,0.00,271.0,WeatherDisplay:10.37,2013-06-04 20:18:00,
2013-06-04 16:23:00,64.9,41.3,30.18,North,8,2.0,5.0,42,0.00,BKN,,0.00,250.0,WeatherDisplay:10.37,2013-06-04 20:23:00,
2013-06-04 16:28:00,64.5,44.9,30.18,North,4,6.0,9.0,49,0.00,BKN,,0.00,225.0,WeatherDisplay:10.37,2013-06-04 20:28:00,
2013-06-04 16:33:00,64.6,42.1,30.18,North,11,3.0,6.0,44,0.00,BKN,,0.00,192.0,WeatherDisplay:10.37,2013-06-04 20:33:00,
2013-06-04 16:38:00,64.5,41.5,30.18,NNE,20,5.0,9.0,43,0.00,BKN,,0.00,209.0,WeatherDisplay:10.37,2013-06-04 20:38:00,
2013-06-04 16:43:00,64.3,41.9,30.18,NNE,13,6.0,8.0,44,0.00,BKN,,0.00,311.0,WeatherDisplay:10.37,2013-06-04 20:43:00,
2013-06-04 16:48:00,64.5,43.3,30.18,North,6,6.0,9.0,46,0.00,BKN,,0.00,283.0,WeatherDisplay:10.37,2013-06-04 20:48:00,
2013-06-04 16:53:00,64.3,42.5,30.18,NNE,18,2.0,5.0,45,0.00,SCT,,0.00,411.0,WeatherDisplay:10.37,2013-06-04 20:53:00,
2013-06-04 16:58:00,64.7,41.6,30.18,NE,36,6.0,10.0,43,0.00,BKN,,0.00,200.0,WeatherDisplay:10.37,2013-06-04 20:58:00,
2013-06-04 17:03:00,64.3,42.5,30.18,NNW,343,7.6,11.5,45,0.00,BKN,,0.00,144.0,WeatherDisplay:10.37,2013-06-04 21:03:00,
2013-06-04 17:08:00,64.1,42.9,30.18,NE,55,4.5,9.2,46,0.00,BKN,,0.00,134.0,WeatherDisplay:10.37,2013-06-04 21:08:00,
2013-06-04 17:13:00,64.2,41.2,30.17,NNE,15,5.6,8.1,43,0.00,BKN,,0.00,169.0,WeatherDisplay:10.37,2013-06-04 21:13:00,
2013-06-04 17:18:00,64.5,41.5,30.17,North,360,7.0,9.2,43,0.00,BKN,,0.00,176.0,WeatherDisplay:10.37,2013-06-04 21:18:00,
2013-06-04 17:23:00,64.5,42.7,30.17,NE,46,4.0,5.0,45,0.00,BKN,,0.00,137.0,WeatherDisplay:10.37,2013-06-04 21:23:00,
2013-06-04 17:28:00,64.5,41.5,30.17,ESE,103,7.1,10.4,43,0.00,BKN,,0.00,130.0,WeatherDisplay:10.37,2013-06-04 21:28:00,
2013-06-04 17:33:00,64.2,43.0,30.17,NNE,29,3.7,6.0,46,0.00,BKN,,0.00,109.0,WeatherDisplay:10.37,2013-06-04 21:33:00,
2013-06-04 17:38:00,64.3,42.5,30.17,NE,46,3.3,5.8,45,0.00,BKN,,0.00,236.0,WeatherDisplay:10.37,2013-06-04 21:38:00,
2013-06-04 17:43:00,64.3,41.3,30.17,ENE,75,5.2,6.9,43,0.00,BKN,,0.00,130.0,WeatherDisplay:10.37,2013-06-04 21:43:00,
2013-06-04 17:48:00,64.2,42.4,30.17,NE,50,3.3,4.6,45,0.00,BKN,,0.00,265.0,WeatherDisplay:10.37,2013-06-04 21:48:00,
2013-06-04 17:53:00,64.3,41.9,30.17,NW,320,5.7,10.4,44,0.00,SCT,,0.00,455.0,WeatherDisplay:10.37,2013-06-04 21:53:00,
2013-06-04 17:58:00,64.3,42.5,30.17,East,84,5.5,8.1,45,0.00,SCT,,0.00,334.0,WeatherDisplay:10.37,2013-06-04 21:58:00,
2013-06-04 18:03:00,64.2,41.8,30.17,NNE,26,4.6,8.1,44,0.00,BKN,,0.00,236.0,WeatherDisplay:10.37,2013-06-04 22:03:00,
2013-06-04 18:08:00,64.4,42.0,30.17,NE,42,5.5,6.0,44,0.00,BKN,,0.00,178.0,WeatherDisplay:10.37,2013-06-04 22:08:00,
2013-06-04 18:13:00,64.3,41.3,30.17,NE,36,2.9,9.2,43,0.00,SCT,,0.00,255.0,WeatherDisplay:10.37,2013-06-04 22:13:00,
2013-06-04 18:18:00,64.5,43.8,30.17,NE,49,3.2,4.6,47,0.00,SCT,,0.00,306.0,WeatherDisplay:10.37,2013-06-04 22:18:00,
2013-06-04 18:23:00,64.5,41.5,30.17,ENE,57,4.6,8.1,43,0.00,BKN,,0.00,146.0,WeatherDisplay:10.37,2013-06-04 22:23:00,
2013-06-04 18:28:00,64.4,43.2,30.17,NNW,343,2.9,5.8,46,0.00,CLR,,0.00,411.0,WeatherDisplay:10.37,2013-06-04 22:28:00,
2013-06-04 18:33:00,64.6,42.2,30.17,North,5,6.7,11.5,44,0.00,CLR,,0.00,318.0,WeatherDisplay:10.37,2013-06-04 22:33:00,
2013-06-04 18:38:00,64.8,40.5,30.17,NNE,24,6.1,9.2,41,0.00,CLR,,0.00,306.0,WeatherDisplay:10.37,2013-06-04 22:38:00,
2013-06-04 18:43:00,64.4,40.8,30.17,NNE,32,5.6,11.5,42,0.00,SCT,,0.00,186.0,WeatherDisplay:10.37,2013-06-04 22:43:00,
2013-06-04 18:48:00,63.8,39.6,30.17,NE,53,4.9,8.1,41,0.00,SCT,,0.00,236.0,WeatherDisplay:10.37,2013-06-04 22:48:00,
2013-06-04 18:53:00,63.6,40.1,30.18,North,355,7.5,11.5,42,0.00,SCT,,0.00,218.0,WeatherDisplay:10.37,2013-06-04 22:53:00,
2013-06-04 18:58:00,63.4,39.3,30.18,NE,44,4.7,8.1,41,0.00,FEW,,0.00,220.0,WeatherDisplay:10.37,2013-06-04 22:58:00,
2013-06-04 19:03:00,63.6,40.1,30.18,ENE,65,5.9,12.7,42,0.00,SCT,,0.00,181.0,WeatherDisplay:10.37,2013-06-04 23:03:00,
2013-06-04 19:08:00,63.6,41.3,30.17,NE,42,6.5,9.2,44,0.00,CLR,,0.00,246.0,WeatherDisplay:10.37,2013-06-04 23:08:00,
2013-06-04 19:13:00,63.5,41.8,30.17,East,79,2.5,5.8,45,0.00,FEW,,0.00,179.0,WeatherDisplay:10.37,2013-06-04 23:13:00,
2013-06-04 19:18:00,63.5,41.8,30.17,North,355,5.8,10.4,45,0.00,CLR,,0.00,230.0,WeatherDisplay:10.37,2013-06-04 23:18:00,
2013-06-04 19:23:00,63.2,41.5,30.17,North,9,5.0,9.2,45,0.00,CLR,,0.00,223.0,WeatherDisplay:10.37,2013-06-04 23:23:00,
2013-06-04 19:28:00,63.1,41.4,30.17,ENE,62,6.7,10.0,45,0.00,CLR,,0.00,213.0,WeatherDisplay:10.37,2013-06-04 23:28:00,
2013-06-04 19:33:00,63.1,42.5,30.17,NE,53,4.9,6.9,47,0.00,SCT,,0.00,111.0,WeatherDisplay:10.37,2013-06-04 23:33:00,
2013-06-04 19:38:00,63.0,43.0,30.17,ENE,68,4.7,8.1,48,0.00,BKN,,0.00,65.0,WeatherDisplay:10.37,2013-06-04 23:38:00,
2013-06-04 19:43:00,62.8,42.8,30.17,East,79,5.2,7.0,48,0.00,BKN,,0.00,58.0,WeatherDisplay:10.37,2013-06-04 23:43:00,
2013-06-04 19:48:00,62.8,43.3,30.17,NE,35,5.2,9.2,49,0.00,BKN,,0.00,54.0,WeatherDisplay:10.37,2013-06-04 23:48:00,
2013-06-04 19:53:00,62.6,42.1,30.17,ENE,62,5.4,10.4,47,0.00,BKN,,0.00,42.0,WeatherDisplay:10.37,2013-06-04 23:53:00,
2013-06-04 19:58:00,62.3,43.4,30.17,NNE,26,3.3,4.6,50,0.00,BKN,,0.00,53.0,WeatherDisplay:10.37,2013-06-04 23:58:00,
2013-06-04 20:03:00,62.2,43.3,30.16,ENE,78,3.1,5.8,50,0.00,BKN,,0.00,40.0,WeatherDisplay:10.37,2013-06-05 00:03:00,
2013-06-04 20:08:00,62.1,43.7,30.17,NNE,22,1.8,3.5,51,0.00,BKN,,0.00,35.0,WeatherDisplay:10.37,2013-06-05 00:08:00,
2013-06-04 20:13:00,62.0,42.6,30.16,ENE,69,3.2,5.8,49,0.00,BKN,,0.00,32.0,WeatherDisplay:10.37,2013-06-05 00:13:00,
2013-06-04 20:18:00,61.8,43.5,30.16,NNE,13,3.5,6.9,51,0.00,BKN,,0.00,18.0,WeatherDisplay:10.37,2013-06-05 00:18:00,
2013-06-04 20:23:00,61.5,43.2,30.16,NE,45,1.4,2.3,51,0.00,BKN,,0.00,16.0,WeatherDisplay:10.37,2013-06-05 00:23:00,
2013-06-04 20:28:00,61.2,43.4,30.16,NE,48,3.1,5.8,52,0.00,BKN,,0.00,14.0,WeatherDisplay:10.37,2013-06-05 00:28:00,
2013-06-04 20:33:00,61.0,43.2,30.16,NE,55,1.3,2.3,52,0.00,BKN,,0.00,9.0,WeatherDisplay:10.37,2013-06-05 00:33:00,
2013-06-04 20:38:00,60.8,42.5,30.16,ENE,63,0.7,3.5,51,0.00,BKN,,0.00,9.0,WeatherDisplay:10.37,2013-06-05 00:38:00,
2013-06-04 20:43:00,60.7,41.4,30.16,NE,56,3.4,4.6,49,0.00,BKN,,0.00,7.0,WeatherDisplay:10.37,2013-06-05 00:43:00,
2013-06-04 20:48:00,60.7,41.9,30.16,NE,46,2.3,3.5,50,0.00,BKN,,0.00,5.0,WeatherDisplay:10.37,2013-06-05 00:48:00,
2013-06-04 20:53:00,60.5,41.8,30.16,NE,35,1.6,3.5,50,0.00,CLR,,0.00,0.0,WeatherDisplay:10.37,2013-06-05 00:53:00,
2013-06-04 20:58:00,60.3,41.6,30.16,NE,41,1.0,2.3,50,0.00,CLR,,0.00,0.0,WeatherDisplay:10.37,2013-06-05 00:58:00,
2013-06-04 21:03:00,60.1,41.9,30.16,NNE,26,2.1,3.5,51,0.00,CLR,,0.00,0.0,WeatherDisplay:10.37,2013-06-05 01:03:00,
2013-06-04 21:08:00,59.9,41.2,30.16,NE,39,2.1,4.6,50,0.00,CLR,,0.00,0.0,WeatherDisplay:10.37,2013-06-05 01:08:00,
2013-06-04 21:13:00,59.8,41.6,30.17,ENE,65,0.5,2.3,51,0.00,CLR,,0.00,0.0,WeatherDisplay:10.37,2013-06-05 01:13:00,
2013-06-04 21:18:00,59.5,41.3,30.17,NE,49,1.5,3.5,51,0.00,CLR,,0.00,0.0,WeatherDisplay:10.37,2013-06-05 01:18:00,
2013-06-04 21:23:00,59.5,41.3,30.16,NE,51,1.4,3.5,51,0.00,CLR,,0.00,0.0,WeatherDisplay:10.37,2013-06-05 01:23:00,
2013-06-04 21:28:00,59.5,41.9,30.17,ENE,74,0.5,2.3,52,0.00,CLR,,0.00,0.0,WeatherDisplay:10.37,2013-06-05 01:28:00,
2013-06-04 21:33:00,59.4,42.3,30.17,ENE,61,0.4,2.3,53,0.00,CLR,,0.00,0.0,WeatherDisplay:10.37,2013-06-05 01:33:00,
2013-06-04 21:38:00,59.2,41.6,30.17,ESE,102,0.7,1.1,52,0.00,CLR,,0.00,0.0,WeatherDisplay:10.37,2013-06-05 01:38:00,
2013-06-04 21:43:00,59.0,41.9,30.17,ESE,102,0.1,1.1,53,0.00,CLR,,0.00,0.0,WeatherDisplay:10.37,2013-06-05 01:43:00,
2013-06-04 21:48:00,58.7,42.1,30.17,ESE,102,0.3,2.3,54,0.00,CLR,,0.00,0.0,WeatherDisplay:10.37,2013-06-05 01:48:00,
2013-06-04 21:53:00,58.5,42.4,30.17,East,88,0.1,1.1,55,0.00,CLR,,0.00,0.0,WeatherDisplay:10.37,2013-06-05 01:53:00,
2013-06-04 21:58:00,58.4,41.8,30.17,East,88,0.2,1.1,54,0.00,CLR,,0.00,0.0,WeatherDisplay:10.37,2013-06-05 01:58:00,
2013-06-04 22:03:00,58.3,42.2,30.17,ESE,110,0.6,3.5,55,0.00,CLR,,0.00,0.0,WeatherDisplay:10.37,2013-06-05 02:03:00,
2013-06-04 22:08:00,58.2,42.1,30.17,East,90,1.5,2.3,55,0.00,CLR,,0.00,0.0,WeatherDisplay:10.37,2013-06-05 02:08:00,
2013-06-04 22:13:00,58.0,41.9,30.17,East,90,0.2,2.3,55,0.00,CLR,,0.00,0.0,WeatherDisplay:10.37,2013-06-05 02:13:00,
2013-06-04 22:18:00,57.9,42.3,30.17,East,90,0.2,1.1,56,0.00,CLR,,0.00,0.0,WeatherDisplay:10.37,2013-06-05 02:18:00,
2013-06-04 22:23:00,57.6,42.0,30.17,East,90,0.0,0.0,56,0.00,CLR,,0.00,0.0,WeatherDisplay:10.37,2013-06-05 02:23:00,
2013-06-04 22:28:00,57.2,42.1,30.17,East,90,0.1,1.1,57,0.00,CLR,,0.00,0.0,WeatherDisplay:10.37,2013-06-05 02:28:00,
2013-06-04 22:33:00,57.1,42.0,30.18,ENE,71,0.1,1.1,57,0.00,CLR,,0.00,0.0,WeatherDisplay:10.37,2013-06-05 02:33:00,
2013-06-04 22:38:00,57.1,42.0,30.18,ENE,71,0.0,0.0,57,0.00,CLR,,0.00,0.0,WeatherDisplay:10.37,2013-06-05 02:38:00,
2013-06-04 22:43:00,56.8,42.2,30.18,ENE,71,0.7,2.3,58,0.00,CLR,,0.00,0.0,WeatherDisplay:10.37,2013-06-05 02:43:00,
2013-06-04 22:48:00,56.8,42.6,30.18,ENE,71,0.1,1.1,59,0.00,CLR,,0.00,0.0,WeatherDisplay:10.37,2013-06-05 02:48:00,
2013-06-04 22:53:00,56.4,42.7,30.18,ENE,71,0.0,0.0,60,0.00,CLR,,0.00,0.0,WeatherDisplay:10.37,2013-06-05 02:53:00,
2013-06-04 22:58:00,56.0,42.7,30.18,ENE,71,0.1,1.1,61,0.00,CLR,,0.00,0.0,WeatherDisplay:10.37,2013-06-05 02:58:00,
2013-06-04 23:03:00,55.8,43.0,30.18,ENE,71,0.0,0.0,62,0.00,CLR,,0.00,0.0,WeatherDisplay:10.37,2013-06-05 03:03:00,
2013-06-04 23:08:00,55.6,42.8,30.18,ENE,71,0.0,0.0,62,0.00,CLR,,0.00,0.0,WeatherDisplay:10.37,2013-06-05 03:08:00,
2013-06-04 23:13:00,55.5,43.5,30.18,ENE,71,0.0,0.0,64,0.00,CLR,,0.00,0.0,WeatherDisplay:10.37,2013-06-05 03:13:00,
2013-06-04 23:18:00,55.2,43.2,30.18,ENE,71,0.0,0.0,64,0.00,CLR,,0.00,0.0,WeatherDisplay:10.37,2013-06-05 03:18:00,
2013-06-04 23:23:00,55.1,43.5,30.18,ENE,71,0.0,0.0,65,0.00,CLR,,0.00,0.0,WeatherDisplay:10.37,2013-06-05 03:23:00,
2013-06-04 23:28:00,54.9,43.4,30.18,ENE,71,0.0,0.0,65,0.00,CLR,,0.00,0.0,WeatherDisplay:10.37,2013-06-05 03:28:00,
2013-06-04 23:33:00,54.8,43.7,30.17,ENE,71,0.0,0.0,66,0.00,CLR,,0.00,0.0,WeatherDisplay:10.37,2013-06-05 03:33:00,
2013-06-04 23:38:00,54.4,43.7,30.17,ENE,71,0.0,0.0,67,0.00,CLR,,0.00,0.0,WeatherDisplay:10.37,2013-06-05 03:38:00,
2013-06-04 23:43:00,53.9,43.6,30.17,ENE,71,0.0,0.0,68,0.00,CLR,,0.00,0.0,WeatherDisplay:10.37,2013-06-05 03:43:00,
2013-06-04 23:48:00,53.8,43.9,30.17,ENE,71,0.0,0.0,69,0.00,CLR,,0.00,0.0,WeatherDisplay:10.37,2013-06-05 03:48:00,
2013-06-04 23:53:00,53.6,44.0,30.17,ENE,71,0.0,0.0,70,0.00,CLR,,0.00,0.0,WeatherDisplay:10.37,2013-06-05 03:53:00,
2013-06-04 23:58:00,53.6,44.0,30.17,ENE,71,0.0,0.0,70,0.00,CLR,,0.00,0.0,WeatherDisplay:10.37,2013-06-05 03:58:00,